Retour au catalogue

STARLINK-34280

ActifCommunicationsVLEO
NORAD 64594·PAYLOAD·🇺🇸 United States

Lancé Jun 25, 2025 depuis Cape Canaveral Space Force Station

Loading…

Prochains Passages (prochaines 24 heures)

TLE

FraisSource: CelesTrak SupGP

Époque: Sep 14, 2026, 21:10 UTC

1 64594C 25137A   26257.88243056 -.00018086  00000+0 -53410-3 0  2571
2 64594  53.1572 173.7618 0001314  98.3902 102.2059 15.34414900    17

Suivez STARLINK-34280 en temps réel avec AllMySat

Download on the App Store